Time,TemperatureF,DewpointF,PressureIn,WindDirection,WindDirectionDegrees,WindSpeedMPH,WindSpeedGustMPH,Humidity,HourlyPrecipIn,Conditions,Clouds,dailyrainin,SolarRadiationWatts/m^2,SoftwareType,DateUTC
2013-04-21 00:01:00,35.0,26.0,-100.00,WNW,289,3.0,6.0,68,0.00,,,0.00,1.000000,,2013-04-21 06:01:00,
2013-04-21 00:12:00,35.0,26.0,-100.00,WNW,289,3.0,6.0,68,0.00,,,0.00,1.000000,,2013-04-21 06:12:00,
2013-04-21 00:22:00,35.0,26.0,-100.00,WNW,289,3.0,6.0,68,0.00,,,0.00,1.000000,,2013-04-21 06:22:00,
2013-04-21 00:52:00,35.0,26.0,-100.00,WNW,293,3.0,8.0,69,0.00,,,0.00,1.000000,,2013-04-21 06:52:00,
2013-04-21 01:01:00,35.0,26.0,-100.00,WNW,293,3.0,8.0,69,0.00,,,0.00,1.000000,,2013-04-21 07:01:00,
2013-04-21 01:12:00,35.0,26.0,-100.00,WNW,293,3.0,8.0,69,0.00,,,0.00,1.000000,,2013-04-21 07:12:00,
2013-04-21 01:21:00,35.0,26.0,-100.00,WNW,293,3.0,8.0,69,0.00,,,0.00,1.000000,,2013-04-21 07:21:00,
2013-04-21 01:52:00,34.0,27.0,-100.00,WNW,297,3.0,5.0,74,0.00,,,0.00,1.000000,,2013-04-21 07:52:00,
2013-04-21 02:01:00,34.0,27.0,-100.00,WNW,297,3.0,5.0,74,0.00,,,0.00,1.000000,,2013-04-21 08:01:00,
2013-04-21 02:12:00,34.0,27.0,-100.00,WNW,297,3.0,5.0,74,0.00,,,0.00,1.000000,,2013-04-21 08:12:00,
2013-04-21 02:21:00,34.0,27.0,-100.00,WNW,297,3.0,5.0,74,0.00,,,0.00,1.000000,,2013-04-21 08:21:00,
2013-04-21 02:52:00,35.0,25.0,-100.00,West,281,3.0,8.0,66,0.00,,,0.00,1.000000,,2013-04-21 08:52:00,
2013-04-21 03:02:00,35.0,25.0,-100.00,West,281,3.0,8.0,66,0.00,,,0.00,1.000000,,2013-04-21 09:02:00,
2013-04-21 03:12:00,35.0,25.0,-100.00,West,281,3.0,8.0,66,0.00,,,0.00,1.000000,,2013-04-21 09:12:00,
2013-04-21 03:21:00,35.0,25.0,-100.00,West,281,3.0,8.0,66,0.00,,,0.00,1.000000,,2013-04-21 09:21:00,
2013-04-21 03:53:00,37.0,24.0,-100.00,NW,318,1.0,6.0,59,0.00,,,0.00,1.000000,,2013-04-21 09:53:00,
2013-04-21 04:03:00,37.0,24.0,-100.00,NW,318,1.0,6.0,59,0.00,,,0.00,1.000000,,2013-04-21 10:03:00,
2013-04-21 04:12:00,37.0,24.0,-100.00,NW,318,1.0,6.0,59,0.00,,,0.00,1.000000,,2013-04-21 10:12:00,
2013-04-21 04:22:00,37.0,24.0,-100.00,NW,318,1.0,6.0,59,0.00,,,0.00,1.000000,,2013-04-21 10:22:00,
2013-04-21 04:52:00,35.0,24.0,-100.00,WNW,285,3.0,9.0,63,0.00,,,0.00,1.000000,,2013-04-21 10:52:00,
2013-04-21 05:02:00,35.0,24.0,-100.00,WNW,285,3.0,9.0,63,0.00,,,0.00,1.000000,,2013-04-21 11:02:00,
2013-04-21 05:12:00,35.0,24.0,-100.00,WNW,285,3.0,9.0,63,0.00,,,0.00,1.000000,,2013-04-21 11:12:00,
2013-04-21 05:22:00,35.0,24.0,-100.00,WNW,285,3.0,9.0,63,0.00,,,0.00,1.000000,,2013-04-21 11:22:00,
2013-04-21 05:52:00,38.0,21.0,-100.00,NW,314,3.0,10.0,49,0.00,,,0.00,1.000000,,2013-04-21 11:52:00,
2013-04-21 06:02:00,38.0,21.0,-100.00,NW,314,3.0,10.0,49,0.00,,,0.00,1.000000,,2013-04-21 12:02:00,
2013-04-21 06:12:00,38.0,21.0,-100.00,NW,314,3.0,10.0,49,0.00,,,0.00,1.000000,,2013-04-21 12:12:00,
2013-04-21 06:22:00,38.0,21.0,-100.00,NW,314,3.0,10.0,49,0.00,,,0.00,1.000000,,2013-04-21 12:22:00,
2013-04-21 06:52:00,35.0,21.0,-100.00,NNW,333,2.0,6.0,57,0.00,,,0.00,1.000000,,2013-04-21 12:52:00,
2013-04-21 07:01:00,35.0,21.0,-100.00,NNW,333,2.0,6.0,57,0.00,,,0.00,1.000000,,2013-04-21 13:01:00,
2013-04-21 07:12:00,35.0,21.0,-100.00,NNW,333,2.0,6.0,57,0.00,,,0.00,1.000000,,2013-04-21 13:12:00,
2013-04-21 07:21:00,35.0,21.0,-100.00,NNW,333,2.0,6.0,57,0.00,,,0.00,1.000000,,2013-04-21 13:21:00,
2013-04-21 07:52:00,35.0,22.0,-100.00,West,267,3.0,6.0,58,0.00,,,0.00,18.000000,,2013-04-21 13:52:00,
2013-04-21 08:02:00,35.0,22.0,-100.00,West,267,3.0,6.0,58,0.00,,,0.00,18.000000,,2013-04-21 14:02:00,
2013-04-21 08:11:00,35.0,22.0,-100.00,West,267,3.0,6.0,58,0.00,,,0.00,18.000000,,2013-04-21 14:11:00,
2013-04-21 08:21:00,35.0,22.0,-100.00,West,267,3.0,6.0,58,0.00,,,0.00,18.000000,,2013-04-21 14:21:00,
2013-04-21 08:52:00,45.0,22.0,-100.00,East,99,2.0,5.0,39,0.00,,,0.00,120.000000,,2013-04-21 14:52:00,
2013-04-21 09:02:00,45.0,22.0,-100.00,East,99,2.0,5.0,39,0.00,,,0.00,120.000000,,2013-04-21 15:02:00,
2013-04-21 09:11:00,45.0,22.0,-100.00,East,99,2.0,5.0,39,0.00,,,0.00,120.000000,,2013-04-21 15:11:00,
2013-04-21 09:22:00,45.0,22.0,-100.00,East,99,2.0,5.0,39,0.00,,,0.00,120.000000,,2013-04-21 15:22:00,
2013-04-21 09:53:00,45.0,23.0,-100.00,ENE,63,2.0,6.0,42,0.00,,,0.00,254.000000,,2013-04-21 15:53:00,
2013-04-21 10:03:00,45.0,23.0,-100.00,ENE,63,2.0,6.0,42,0.00,,,0.00,254.000000,,2013-04-21 16:03:00,
2013-04-21 10:12:00,45.0,23.0,-100.00,ENE,63,2.0,6.0,42,0.00,,,0.00,254.000000,,2013-04-21 16:12:00,
2013-04-21 10:22:00,45.0,23.0,-100.00,ENE,63,2.0,6.0,42,0.00,,,0.00,254.000000,,2013-04-21 16:22:00,
2013-04-21 10:53:00,52.0,25.0,-100.00,ESE,112,4.0,7.0,34,0.00,,,0.00,390.000000,,2013-04-21 16:53:00,
2013-04-21 11:02:00,52.0,25.0,-100.00,ESE,112,4.0,7.0,34,0.00,,,0.00,390.000000,,2013-04-21 17:02:00,
2013-04-21 11:12:00,52.0,25.0,-100.00,ESE,112,4.0,7.0,34,0.00,,,0.00,390.000000,,2013-04-21 17:12:00,
2013-04-21 11:23:00,52.0,25.0,-100.00,ESE,112,4.0,7.0,34,0.00,,,0.00,390.000000,,2013-04-21 17:23:00,
2013-04-21 11:52:00,52.0,22.0,-100.00,East,96,3.0,7.0,30,0.00,,,0.00,564.000000,,2013-04-21 17:52:00,
2013-04-21 12:02:00,52.0,22.0,-100.00,East,96,3.0,7.0,30,0.00,,,0.00,564.000000,,2013-04-21 18:02:00,
2013-04-21 12:11:00,52.0,22.0,-100.00,East,96,3.0,7.0,30,0.00,,,0.00,564.000000,,2013-04-21 18:11:00,
2013-04-21 12:22:00,52.0,22.0,-100.00,East,96,3.0,7.0,30,0.00,,,0.00,564.000000,,2013-04-21 18:22:00,
2013-04-21 12:52:00,51.0,19.0,-100.00,West,265,8.0,16.0,28,0.00,,,0.00,806.000000,,2013-04-21 18:52:00,
2013-04-21 13:02:00,51.0,19.0,-100.00,West,265,8.0,16.0,28,0.00,,,0.00,806.000000,,2013-04-21 19:02:00,
2013-04-21 13:12:00,51.0,19.0,-100.00,West,265,8.0,16.0,28,0.00,,,0.00,806.000000,,2013-04-21 19:12:00,
2013-04-21 13:21:00,51.0,19.0,-100.00,West,265,8.0,16.0,28,0.00,,,0.00,806.000000,,2013-04-21 19:21:00,
2013-04-21 13:52:00,53.0,18.0,-100.00,WSW,251,8.0,16.0,25,0.00,,,0.00,921.000000,,2013-04-21 19:52:00,
2013-04-21 14:02:00,53.0,18.0,-100.00,WSW,251,8.0,16.0,25,0.00,,,0.00,921.000000,,2013-04-21 20:02:00,
2013-04-21 14:11:00,53.0,18.0,-100.00,WSW,251,8.0,16.0,25,0.00,,,0.00,921.000000,,2013-04-21 20:11:00,
2013-04-21 14:22:00,53.0,18.0,-100.00,WSW,251,8.0,16.0,25,0.00,,,0.00,921.000000,,2013-04-21 20:22:00,
2013-04-21 14:52:00,54.0,17.0,-100.00,West,262,8.0,18.0,23,0.00,,,0.00,833.000000,,2013-04-21 20:52:00,
2013-04-21 15:02:00,54.0,17.0,-100.00,West,262,8.0,18.0,23,0.00,,,0.00,833.000000,,2013-04-21 21:02:00,
2013-04-21 15:12:00,54.0,17.0,-100.00,West,262,8.0,18.0,23,0.00,,,0.00,833.000000,,2013-04-21 21:12:00,
2013-04-21 15:21:00,54.0,17.0,-100.00,West,262,8.0,18.0,23,0.00,,,0.00,833.000000,,2013-04-21 21:21:00,
2013-04-21 15:53:00,56.0,19.0,-100.00,West,263,6.0,15.0,23,0.00,,,0.00,776.000000,,2013-04-21 21:53:00,
2013-04-21 16:02:00,56.0,19.0,-100.00,West,263,6.0,15.0,23,0.00,,,0.00,776.000000,,2013-04-21 22:02:00,
2013-04-21 16:12:00,56.0,19.0,-100.00,West,263,6.0,15.0,23,0.00,,,0.00,776.000000,,2013-04-21 22:12:00,
2013-04-21 16:22:00,56.0,19.0,-100.00,West,263,6.0,15.0,23,0.00,,,0.00,776.000000,,2013-04-21 22:22:00,
2013-04-21 16:53:00,57.0,16.0,-100.00,SSW,196,5.0,11.0,20,0.00,,,0.00,664.000000,,2013-04-21 22:53:00,
2013-04-21 17:02:00,57.0,16.0,-100.00,SSW,196,5.0,11.0,20,0.00,,,0.00,664.000000,,2013-04-21 23:02:00,
2013-04-21 17:12:00,57.0,16.0,-100.00,SSW,196,5.0,11.0,20,0.00,,,0.00,664.000000,,2013-04-21 23:12:00,
2013-04-21 17:22:00,57.0,16.0,-100.00,SSW,196,5.0,11.0,20,0.00,,,0.00,664.000000,,2013-04-21 23:22:00,
2013-04-21 17:52:00,54.0,18.0,-100.00,SW,231,2.0,14.0,24,0.00,,,0.00,360.000000,,2013-04-21 23:52:00,
2013-04-21 18:01:00,54.0,18.0,-100.00,SW,231,2.0,14.0,24,0.00,,,0.00,360.000000,,2013-04-22 00:01:00,
2013-04-21 18:11:00,54.0,18.0,-100.00,SW,231,2.0,14.0,24,0.00,,,0.00,360.000000,,2013-04-22 00:11:00,
2013-04-21 18:21:00,54.0,18.0,-100.00,SW,231,2.0,14.0,24,0.00,,,0.00,360.000000,,2013-04-22 00:21:00,
2013-04-21 18:52:00,54.0,21.0,-100.00,NNW,335,3.0,10.0,27,0.00,,,0.00,339.000000,,2013-04-22 00:52:00,
2013-04-21 19:01:00,54.0,21.0,-100.00,NNW,335,3.0,10.0,27,0.00,,,0.00,339.000000,,2013-04-22 01:01:00,
2013-04-21 19:12:00,54.0,21.0,-100.00,NNW,335,3.0,10.0,27,0.00,,,0.00,339.000000,,2013-04-22 01:12:00,
2013-04-21 19:21:00,54.0,21.0,-100.00,NNW,335,3.0,10.0,27,0.00,,,0.00,339.000000,,2013-04-22 01:21:00,
2013-04-21 19:52:00,47.0,21.0,-100.00,NW,311,4.0,14.0,36,0.00,,,0.00,128.000000,,2013-04-22 01:52:00,
2013-04-21 20:02:00,47.0,21.0,-100.00,NW,311,4.0,14.0,36,0.00,,,0.00,128.000000,,2013-04-22 02:02:00,
2013-04-21 20:11:00,47.0,21.0,-100.00,NW,311,4.0,14.0,36,0.00,,,0.00,128.000000,,2013-04-22 02:11:00,
2013-04-21 20:21:00,47.0,21.0,-100.00,NW,311,4.0,14.0,36,0.00,,,0.00,128.000000,,2013-04-22 02:21:00,
2013-04-21 20:52:00,42.0,21.0,-100.00,NW,317,1.0,7.0,43,0.00,,,0.00,19.000000,,2013-04-22 02:52:00,
2013-04-21 21:02:00,42.0,21.0,-100.00,NW,317,1.0,7.0,43,0.00,,,0.00,19.000000,,2013-04-22 03:02:00,
2013-04-21 21:11:00,42.0,21.0,-100.00,NW,317,1.0,7.0,43,0.00,,,0.00,19.000000,,2013-04-22 03:11:00,
2013-04-21 21:22:00,42.0,21.0,-100.00,NW,317,1.0,7.0,43,0.00,,,0.00,19.000000,,2013-04-22 03:22:00,
2013-04-21 21:53:00,40.0,21.0,-100.00,West,277,2.0,6.0,47,0.00,,,0.00,1.000000,,2013-04-22 03:53:00,
2013-04-21 22:03:00,40.0,21.0,-100.00,West,277,2.0,6.0,47,0.00,,,0.00,1.000000,,2013-04-22 04:03:00,
2013-04-21 22:12:00,40.0,21.0,-100.00,West,277,2.0,6.0,47,0.00,,,0.00,1.000000,,2013-04-22 04:12:00,
2013-04-21 22:23:00,40.0,21.0,-100.00,West,277,2.0,6.0,47,0.00,,,0.00,1.000000,,2013-04-22 04:23:00,
2013-04-21 22:53:00,46.0,18.0,-100.00,WNW,287,5.0,13.0,32,0.00,,,0.00,1.000000,,2013-04-22 04:53:00,
2013-04-21 23:02:00,46.0,18.0,-100.00,WNW,287,5.0,13.0,32,0.00,,,0.00,1.000000,,2013-04-22 05:02:00,
2013-04-21 23:12:00,46.0,18.0,-100.00,WNW,287,5.0,13.0,32,0.00,,,0.00,1.000000,,2013-04-22 05:12:00,
2013-04-21 23:22:00,46.0,18.0,-100.00,WNW,287,5.0,13.0,32,0.00,,,0.00,1.000000,,2013-04-22 05:22:00,
2013-04-21 23:52:00,40.0,20.0,-100.00,West,276,4.0,12.0,44,0.00,,,0.00,1.000000,,2013-04-22 05:52:00,